This demonstration page uses our WeatherBlox Daily Observations layout. Learn more.

41.55636, -103.73856

Hourly Observations for December 3, 2015

Temp ( °F °C ) Dew Point ( °F °C ) Humidity (%) Winds ( mph kmh ) Pressure ( in mb ) Visibility ( mi km ) Precip ( " mm )
12:53 am 00:53 Clear 19 -7 12 -11 73 73 Calm 30.36 1028 10 16.09344 0 0
1:53 am 01:53 Clear 18 -8 12 -11 79 79 N 8 13 30.39 1029 10 16.09344 0 0
2:53 am 02:53 Clear 21 -6 16 -9 80 80 N 6 9 30.39 1029 10 16.09344 0 0
3:53 am 03:53 Clear 27 -3 19 -7 74 74 NW 7 11 30.33 1027 10 16.09344 0 0
4:53 am 04:53 Clear 28 -2 19 -7 69 69 WNW 10 17 30.36 1028 10 16.09344 0 0
5:53 am 05:53 Cloudy 30 -1 21 -6 69 69 NW 6 9 30.33 1027 10 16.09344 0 0
6:53 am 06:53 Clear 28 -2 21 -6 74 74 NW 12 19 30.39 1029 10 16.09344 0 0
7:53 am 07:53 Sunny 30 -1 21 -6 69 69 NW 9 15 30.36 1028 10 16.09344 0 0
8:53 am 08:53 Sunny 36 2 21 -6 56 56 WNW 9 15 30.36 1028 10 16.09344 0 0
9:53 am 09:53 Sunny 41 5 21 -6 45 45 WNW 13 20 30.3 1026 10 16.09344 0 0
10:53 am 10:53 Sunny 48 9 21 -6 34 34 WNW 12 19 30.21 1023 10 16.09344 0 0
11:53 am 11:53 Sunny 50 10 21 -6 32 32 WNW 9 15 30.15 1021 10 16.09344 0 0
12:53 pm 12:53 Sunny 52 11 21 -6 30 30 NW 7 11 30.15 1021 10 16.09344 0 0
1:53 pm 13:53 Sunny 52 11 21 -6 30 30 WSW 5 7 30.15 1021 10 16.09344 0 0
2:53 pm 14:53 Sunny 54 12 19 -7 26 26 Calm 30.09 1019 10 16.09344 0 0
3:53 pm 15:53 Sunny 46 8 21 -6 37 37 SE 6 9 30.15 1021 10 16.09344 0 0
4:53 pm 16:53 Clear 39 4 21 -6 48 48 SSE 7 11 30.21 1023 10 16.09344 0 0
5:53 pm 17:53 Clear 36 2 21 -6 56 56 S 3 6 30.24 1024 10 16.09344 0 0
6:53 pm 18:53 Clear 28 -2 19 -7 69 69 ESE 6 9 30.33 1027 10 16.09344 0 0
7:53 pm 19:53 Clear 28 -2 19 -7 69 69 E 8 13 30.33 1027 10 16.09344 0 0
8:53 pm 20:53 Clear 27 -3 19 -7 74 74 ENE 7 11 30.33 1027 10 16.09344 0 0
9:53 pm 21:53 Clear 27 -3 19 -7 74 74 E 7 11 30.3 1026 10 16.09344 0 0
10:53 pm 22:53 Clear 28 -2 21 -6 74 74 E 13 20 30.27 1025 10 16.09344 0 0
11:53 pm 23:53 Clear 28 -2 21 -6 74 74 E 12 19 30.27 1025 10 16.09344 0 0

Powered by AerisWeather